Home > Weather > Pabna > Past weeks

Flag for Bangladesh Weather for the Past 2 Weeks in Pabna, Bangladesh

Now
52 °F

Fog.


Feels Like: 52 °F
Forecast: 63 / 87 °F
Wind: No wind

Location: Lucknow / Amausi

Current Time: Feb 12, 2016 at 8:32:49 AM

Latest Report: Feb 12, 2016 at 7:30 AM


Visibility: 1 mi

Pressure: 29.89 "Hg

Humidity: 88%

Dew point: 48 °F

Location of PabnaLocation

Historic Weather in Pabna — Graph

°F

Pabna Temperature Yesterday

Maximum temperature yesterday: 81 °F (at 1:30 PM)
Minimum temperature yesterday: 50 °F (at 3:30 AM)
Average temperature yesterday: 67 °F

High & Low Weather Summary for the Past Weeks

 TemperatureHumidityPressure
High82 °F (Jan 31, 2:30 PM)100% (Jan 28, 7:00 AM)30.09 "Hg (Jan 28, 7:00 AM)
Low45 °F (Feb 4, 6:30 AM)26% (Feb 11, 4:00 PM)29.80 "Hg (Feb 11, 4:00 PM)
Average65 °F65%29.96 "Hg
* Reported Jan 28 7:00 AM — Feb 12 7:00 AM, Pabna, Weather by CustomWeather, © 2016

Note: Actual official high and low records may vary slightly from our data, if they occured in-between our weather recording intervals... More about our weather records

Advertising

Pabna Weather History for the Previous 24 Hours

 ConditionsComfort  
Time TempWeatherWind HumidityBarometerVisibility
7:00 AM
Fri, Feb 12
52 °FFog.No wind82%29.89 "Hg1 mi
6:30 AM52 °FHaze.No wind88%29.89 "Hg1 mi
6:00 AM54 °FFog.No wind77%29.86 "Hg1 mi
4:30 AM54 °FHaze.No wind82%29.86 "Hg1 mi
2:30 AM57 °FHaze.5 mph72%29.89 "Hg1 mi
1:30 AM61 °FHaze.No wind63%29.89 "Hg1 mi
12:30 AM61 °FHaze.No wind63%29.89 "Hg1 mi
11:30 PM
Thu, Feb 11
63 °FHaze.No wind64%29.89 "Hg1 mi
10:30 PM61 °FHaze.No wind68%29.89 "Hg1 mi
9:30 PM66 °FHaze.No wind52%29.89 "Hg1 mi
9:00 PM70 °FHaze.No wind46%29.89 "Hg1 mi
8:30 PM70 °FHaze.No wind46%29.86 "Hg1 mi
8:00 PM68 °FHaze.No wind53%29.86 "Hg1 mi
7:30 PM70 °FHaze.No wind50%29.86 "Hg1 mi
7:00 PM72 °FHaze.No wind47%29.83 "Hg1 mi
6:30 PM75 °FHaze.2 mph41%29.83 "Hg2 mi
6:00 PM77 °FHaze.3 mph36%29.83 "Hg2 mi
5:30 PM79 °FHaze.3 mph30%29.83 "Hg2 mi
5:00 PM81 °FHaze.2 mph28%29.83 "Hg2 mi
4:30 PM81 °FHaze.3 mph26%29.80 "Hg2 mi
4:00 PM81 °FHaze.2 mph26%29.80 "Hg2 mi
3:30 PM81 °FHaze.2 mph32%29.83 "Hg2 mi
3:00 PM81 °FHaze.2 mph30%29.83 "Hg2 mi
2:30 PM81 °FHaze.2 mph28%29.83 "Hg2 mi
2:00 PM81 °FHaze.3 mph37%29.86 "Hg2 mi
1:30 PM81 °FHaze.3 mph37%29.83 "Hg2 mi
1:00 PM79 °FHaze.3 mph39%29.86 "Hg2 mi
12:30 PM79 °FHaze.3 mph39%29.89 "Hg2 mi
12:00 PM77 °FHaze.3 mph42%29.89 "Hg2 mi
11:00 AM73 °FHaze.6 mph50%29.92 "Hg1 mi
10:30 AM72 °FHaze.3 mph53%29.92 "Hg1 mi
10:00 AM68 °FHaze.3 mph60%29.92 "Hg1 mi
9:30 AM64 °FHaze.No wind68%29.89 "Hg1 mi
9:00 AM55 °FFog.No wind94%29.89 "Hg1 mi
8:30 AM52 °FFog.No wind100%29.89 "Hg1 mi
8:00 AM50 °FFog.No wind94%29.86 "Hg0 mi
Weather by CustomWeather, © 2016

See weather overviewHow to use our weather pages